Tracking 35274 objects as of 12-Sep-2026
HD Live streaming from Space Station
objects crossing your sky now

DELTA 1 DEB


DELTA 1 DEB is no longer on orbit


NORAD ID: 9708
Int'l Code: 1975-004GS
Launch date: January 22, 1975
Source: United States (US)
Launch site: AIR FORCE WESTERN TEST RANGE (AFWTR)
Decay date: 1979-05-02

Note: This is SATELLITE DEBRIS
Your satellite tracking list
Your tracking list is empty




NASA's NSSDC Master Catalog

Two Line Element Set (TLE):
1 09708U 75004 GS 79117.57331459  .04889302 +00000-0 +80579-1 0  9996
2 09708 097.6137 343.3455 0022354 309.1298 045.3130 15.35306103167652
Source of the keplerian elements: AFSPC